OBJECT P, 43771

Orbit data source: Space-Track

You're viewing an Uncataloged Satellite

Recently launched and/or uncataloged satellites may have evolving metadata. Metadata may include but not limited to: Owner, Maufacturer, Bus, Motor, and Mission.

OBJECT P, 43771 is a satellite in SSO that was launched on Mon, 03 Dec 2018 UTC via an FALCON 9 launch vehicle from the Air Force Western Test Range (AFWTR). Unknown objects in Earth's orbit typically refer to objects detected orbiting the Earth but have not yet been identified or cataloged. These objects could be anything from previously untracked satellites, spent rocket stages, debris from satellite collisions, or even natural meteoroids temporarily captured by Earth's gravity.

Loading next visibility...
Identifier
43771, 2018-099P
Orbit
SSO
Country
Flag of TBDTBD
Related business
None
Manufacturer
Unknown
Mission
Non-operational Amateur Technology
Bus & Motor
Unknown
Mass
Unknown
Launch date (UTC)
2018-12-03 (7 years ago)
Launch vehicle
FALCON 9
Launch site
Air Force Western Test Range (AFWTR)
Object type
Unknown
Shape & HBR
Box + Inf Sphere + 4 Pan, 15.0 m
Radar Cross Section
1.830 m², Small (<0.1 m²)

Expand to show TLE details & history
Last TLE update: 6 hours ago

TLE from 6 hours ago
0 OBJECT P
1 43771U 18099P   26125.12703387  .00019575  00000-0  61524-3 0  9994
2 43771  97.4269 188.5409 0010124  83.3634 276.8760 15.32973637406946
Epoch: 2026-05-05T03:02Z
TLE epoch observation values (Epoch: 2026-05-05T03:02:55.726Z)
Latitude
-0.00003°
Longitude
-80.19763°
Altitude
469.23 km
Speed
7.632 km/s
True Right ascension
12h 34m 09s
True Declination
0° 00' 00"
Sunlit
Object was in full shadow at epoch
Visualization orbit readout
Latitude
Unknown
Longitude
Unknown
Altitude
Unknown
Speed
Unknown
Apparent Right ascension
Unknown
Apparent Declination
Unknown
Sunlit
N/A
Visualization observer readout
Local Sidereal Time
17:20:14
Azimuth
Unknown
Elevation
Unknown
Doppler factor
Unknown
Orbital elements
Apogee altitude
470.822 km
Perigee altitude
456.969 km
Semi-major axis
6,842.032 km
Eccentricity
0.00101
Inclination
97.4269°
RAAN
188.5409°
Arg. of periapsis
83.3634°
True anomaly
276.7608°
Mean anomaly
276.876°
Eccentric anomaly
276.8184°
Mean motion
3.835 °/min
Orbital period
93.87 mins
BSTAR
0.00061524
Loading maneuver chart data...
Computing Atmospheric mass density...
Loading historical data...
Loading historical data...
Loading historical data...
Loading historical data...
Loading historical data...
Loading historical data...
Loading historical data...

Documentation

Showing up to 5 results
|